Location: Kervinic
(48.4279°N, 4.7373°W)
Time: 23:18:25
(UTC+00:00)

Cosmos 1818 - Pass Details

Date: 09 April 2020
Orbit: 778 x 796 km, 65.0° (Epoch: 27 May)

Event Time Altitude Azimuth Distance (km) Brightness Sun altitude
Rises 19:34:32 0° 220° (SW) 3,270 7.1 -6.0°
Reaches altitude 10° 19:36:56 10° 221° (SW) 2,348 6.3 -6.4°
Maximum altitude 19:42:21 80° 309° (NW) 810 3.8 -7.3°
Drops below altitude 10° 19:47:49 10° 37° (NE) 2,372 5.9 -8.1°
Sets 19:50:16 0° 38° (NE) 3,306 6.6 -8.5°
